Wind_Speed
42 42 42 41 39 39 38 37 36 35 35 34 34 34 34 35 36 37 37 36 36 35 35 33 32 31 31 30 30 31 34 38 41 43 43 43 43 44 44 44 44 43 43 43 44 44 45 46 48 50 53 55 56 56 56 56 57 57 58 58 57 56 54 53 52 51 51 52 51 51 54 56 56 55
39 40 40 40 40 39 39 38 37 37 37 37 36 35 35 35 35 37 38 39 39 39 38 36 35 34 33 32 32 32 32 34 38 42 44 45 44 44 45 45 45 45 45 45 45 46 46 47 48 50 51 53 55 57 58 58 58 58 59 60 60 60 59 59 59 58 58 59 58 56 56 57 57 56
38 38 39 40 40 40 39 38 38 38 39 39 38 38 37 36 35 36 37 38 39 40 40 39 38 37 36 35 34 34 34 34 35 38 41 44 46 46 46 46 47 47 47 47 47 47 48 48 49 50 51 53 54 55 57 58 60 60 60 60 61 62 62 62 61 61 60 62 63 62 60 60 60 59
40 39 39 40 40 41 41 40 40 40 40 40 40 39 39 38 38 37 38 38 38 39 40 40 40 40 39 38 37 37 36 36 36 37 38 41 44 47 48 48 48 48 48 49 49 49 50 50 51 51 52 53 55 56 56 57 59 60 60 60 61 62 63 64 63 62 61 61 63 64 63 63 63 63
42 42 42 42 42 43 43 43 43 42 42 42 42 41 41 41 41 40 41 41 41 40 40 41 41 42 41 41 40 39 39 39 39 39 39 40 41 44 47 49 50 50 50 50 50 51 51 52 52 53 53 54 55 57 58 58 58 59 59 59 59 60 61 63 64 64 63 62 64 65 65 64 64 64
44 45 46 46 46 46 45 45 44 43 43 43 44 43 43 43 44 44 44 44 44 44 43 43 42 42 41 41 40 41 41 42 42 42 42 42 42 43 45 47 49 51 52 53 53 53 53 53 54 54 55 55 55 56 58 60 60 60 60 60 60 59 60 61 64 65 65 64 64 65 66 66 65 65
46 47 48 49 49 49 48 47 46 45 45 45 46 46 46 47 47 48 48 48 48 48 48 47 46 45 44 43 43 43 44 44 44 45 45 45 45 45 45 46 48 50 52 54 55 55 55 55 55 56 56 57 57 57 58 59 61 62 62 62 62 62 61 61 63 65 67 66 65 65 65 66 67 67
47 48 48 49 50 50 50 50 49 49 48 48 48 49 50 50 51 52 52 52 52 52 53 53 53 52 51 50 49 49 48 47 47 47 48 48 48 48 48 49 49 50 51 53 55 57 58 58 57 57 57 58 59 59 59 59 60 62 64 65 65 65 64 63 63 65 68 69 68 67 66 66 67 68
46 47 47 48 48 48 48 48 48 49 49 49 49 50 51 52 53 54 55 56 56 56 57 58 58 58 57 55 54 53 51 50 50 50 50 50 50 51 52 52 52 52 53 54 55 56 58 60 60 60 60 60 60 61 61 61 61 62 63 65 67 68 68 67 65 65 66 69 71 71 70 69 68 69
48 47 48 48 49 48 48 47 47 47 47 48 48 48 50 50 51 52 53 55 56 57 58 60 61 61 60 58 56 54 52 52 52 52 52 52 52 53 54 55 56 56 56 56 56 57 58 60 61 63 63 63 63 63 63 63 63 63 64 65 66 67 69 69 69 68 67 68 71 72 73 73 72 72
50 49 49 49 50 50 49 48 47 47 47 47 47 47 48 48 48 48 48 49 50 52 54 56 59 60 59 57 55 54 53 52 52 53 53 54 55 55 56 57 58 60 59 59 59 59 59 60 61 63 64 65 66 66 66 66 66 66 66 66 66 67 68 69 70 71 70 70 70 71 72 73 74 74
51 50 49 50 50 50 50 49 49 48 48 48 48 47 47 47 47 46 46 46 47 49 51 52 53 53 53 53 52 51 50 50 50 51 52 53 55 57 58 59 59 61 62 62 62 62 62 62 63 64 65 66 67 68 68 69 69 69 68 69 69 69 69 69 70 71 72 72 73 73 73 73 74 74
50 50 49 50 50 50 50 50 49 48 48 48 47 46 45 45 45 45 45 45 46 47 49 49 48 48 47 48 48 48 48 48 48 49 50 51 53 55 58 59 60 61 63 64 65 65 66 65 65 66 66 67 68 69 70 71 72 72 72 72 72 72 72 72 72 72 72 73 74 74 75 75 75 75
49 49 50 51 51 51 51 50 49 48 48 47 46 45 44 44 43 43 43 44 45 47 49 48 46 45 45 47 49 49 50 50 50 50 50 50 51 53 56 59 61 62 64 65 66 67 68 69 69 69 69 69 70 71 71 71 73 74 74 75 75 75 75 75 75 74 74 74 74 75 75 76 76 77
50 49 50 52 53 52 51 50 48 47 46 46 45 45 45 44 44 43 42 42 44 46 47 47 46 46 48 51 54 54 54 54 53 53 52 51 52 52 54 57 59 62 64 66 68 69 70 70 71 72 73 73 73 74 74 73 74 74 75 77 77 78 78 78 78 78 77 77 77 77 77 77 77 78
51 47 47 51 53 53 52 51 49 48 47 46 46 46 46 45 46 46 45 45 45 46 48 50 52 55 56 56 57 58 58 57 56 56 55 54 53 53 54 55 58 60 62 64 67 70 72 73 73 74 76 77 77 78 78 77 77 77 77 78 79 80 80 81 81 81 81 81 80 80 79 79 79 79
47 41 46 52 55 55 54 53 52 51 49 49 48 48 48 48 48 49 50 49 49 50 52 55 58 60 59 57 57 59 60 60 59 58 57 56 55 55 55 56 57 59 60 62 64 67 71 73 74 76 78 79 80 81 82 82 82 81 80 81 81 81 82 82 83 84 84 84 84 83 83 82 82 82
47 47 54 58 60 60 58 56 55 53 51 50 50 49 49 49 50 51 51 52 52 53 54 56 57 58 58 57 57 58 59 59 59 59 58 58 57 56 56 57 58 59 60 62 63 65 68 71 73 76 78 80 82 84 85 85 86 86 85 85 85 85 85 84 85 85 85 86 86 86 86 86 86 85
58 58 60 60 59 60 61 62 61 59 56 54 53 52 52 52 51 52 52 52 52 53 53 54 55 55 56 57 56 57 58 58 59 59 59 59 59 58 58 59 60 61 61 62 64 65 67 70 71 73 76 79 82 84 87 88 88 89 89 89 89 89 89 89 88 88 87 87 87 87 88 88 88 88
63 63 62 62 61 61 62 64 65 65 65 64 63 62 61 60 59 58 57 56 56 56 56 56 56 56 57 57 58 58 59 59 60 61 61 61 61 61 61 62 62 63 63 63 64 65 66 69 70 72 74 77 80 83 87 89 90 92 93 93 93 93 93 93 92 92 91 90 89 89 88 88 89 89
67 66 65 65 65 65 65 65 66 66 68 69 70 70 70 69 68 66 64 63 63 62 61 61 60 60 60 61 61 61 62 63 63 63 64 64 64 63 63 63 63 63 63 63 64 65 66 68 70 72 74 76 79 83 87 90 92 93 95 95 96 96 96 96 96 96 95 94 93 92 91 91 90 90
70 68 68 68 68 68 68 68 68 69 70 71 72 73 74 74 74 73 72 71 70 70 69 68 67 67 66 66 66 66 67 66 66 65 65 65 64 63 62 62 63 64 65 65 65 66 68 69 71 73 75 77 80 83 87 90 93 94 96 97 98 98 99 99 99 98 98 97 96 95 95 94 93 92
74 73 72 72 72 72 72 72 73 73 74 74 74 75 75 76 76 77 77 76 76 76 76 75 74 73 72 71 70 68 68 68 67 66 65 64 64 63 63 63 64 65 67 68 68 69 70 71 73 75 77 78 81 84 87 90 93 95 96 97 97 98 100 100 101 100 99 99 98 98 97 97 96 96
78 77 77 76 76 76 76 76 76 76 76 76 76 76 76 77 77 78 78 78 78 77 77 77 76 74 73 72 70 69 68 68 68 66 65 64 64 64 64 65 66 67 69 71 71 71 72 74 75 77 78 79 81 84 87 90 93 95 97 97 96 97 98 100 101 101 101 100 100 99 99 98 98 98
80 80 80 80 79 79 78 78 78 78 78 78 78 78 78 78 78 77 77 77 77 76 75 74 73 72 72 71 71 70 69 68 67 66 66 66 66 66 66 67 69 70 72 74 74 74 74 74 75 77 78 79 79 81 83 86 90 92 94 95 95 95 96 97 99 99 100 100 101 101 101 100 99 99
81 82 82 81 81 80 80 80 79 80 80 79 79 79 78 77 77 76 75 74 74 73 73 72 72 72 72 71 71 70 69 68 67 67 67 68 69 69 70 71 72 74 76 77 76 74 72 72 73 74 75 75 76 76 78 80 83 86 89 91 93 94 95 95 96 96 96 97 99 101 101 101 102 101
79 80 80 80 80 80 79 79 78 78 78 78 78 77 77 76 75 74 73 72 72 72 72 72 72 72 72 72 72 71 70 70 70 70 70 71 72 73 73 74 75 76 76 75 73 71 69 69 70 71 71 71 71 71 72 73 75 79 82 85 87 89 91 92 93 93 92 93 95 97 99 100 101 102
74 75 76 77 76 76 76 76 76 75 75 75 76 76 75 75 74 74 73 73 73 72 72 72 73 73 73 73 73 73 73 73 73 73 73 74 75 76 76 76 76 75 73 71 69 68 67 66 67 67 68 67 67 67 67 68 70 72 75 77 80 82 84 86 88 89 89 89 90 92 94 96 97 99
72 73 74 74 74 74 74 74 74 74 74 74 75 75 75 75 75 75 75 75 74 74 74 74 74 74 74 75 75 76 76 76 76 76 76 76 76 76 76 76 75 73 71 69 67 65 64 63 63 63 63 63 63 63 63 63 65 67 68 69 72 75 78 80 82 84 85 86 86 87 88 90 92 94
72 73 73 74 74 74 75 75 75 76 76 76 76 76 76 77 77 77 77 77 77 77 77 77 77 77 78 78 78 78 77 77 76 75 74 74 75 75 75 74 72 70 67 65 62 60 59 59 58 58 58 59 58 58 58 58 60 62 63 64 66 69 73 75 76 78 79 81 82 83 84 85 87 89
74 75 76 76 76 77 77 78 78 78 79 79 79 79 79 79 80 80 80 80 80 80 80 80 80 80 80 79 78 77 76 75 74 73 72 73 73 73 72 70 67 65 63 60 58 56 56 55 55 55 55 55 55 55 55 55 56 58 59 61 62 64 68 70 71 72 74 75 77 79 80 81 82 83
75 76 77 78 79 80 80 81 81 81 81 81 81 81 82 82 82 83 83 83 83 83 83 82 81 81 80 79 77 75 74 73 72 72 72 73 72 69 66 64 62 60 58 56 54 53 53 53 52 52 52 52 52 52 52 52 53 54 56 58 59 61 63 65 66 67 69 70 72 73 75 76 76 77
77 77 79 80 81 82 82 83 83 83 83 83 83 83 83 84 85 85 86 86 86 86 85 84 83 82 79 77 75 73 72 72 72 73 73 72 68 64 61 60 59 57 56 54 51 51 51 50 49 48 47 48 48 48 48 49 50 50 51 53 55 56 58 59 61 62 63 64 66 68 69 70 70 71
78 79 80 81 82 83 84 85 85 85 84 84 84 85 86 86 87 87 88 88 88 87 87 85 83 81 78 77 75 73 72 72 73 73 71 67 63 60 59 58 56 54 53 51 49 49 48 46 45 45 45 45 45 44 44 45 47 47 47 49 51 53 53 53 54 56 58 59 60 62 63 64 64 65
79 80 81 82 83 84 84 85 85 85 85 85 86 86 87 87 88 89 89 89 88 87 86 84 82 80 78 77 75 74 73 72 72 70 66 61 59 57 56 55 54 52 50 48 47 46 45 44 44 44 43 43 43 42 41 42 44 45 45 46 48 49 47 46 47 50 52 53 55 56 57 58 59 59
79 80 81 82 82 82 82 83 84 84 85 85 86 86 86 87 88 88 88 87 86 85 84 83 81 79 78 76 74 72 70 69 67 64 59 57 56 55 54 52 51 49 48 47 45 44 43 42 41 41 41 41 40 40 39 39 41 42 44 46 46 45 43 42 43 46 48 48 49 50 51 52 53 53
78 80 80 80 80 81 81 82 83 83 84 84 85 85 86 86 87 86 86 85 84 83 82 81 79 77 75 72 70 67 65 63 60 57 55 55 54 53 51 49 48 47 46 45 44 43 41 40 39 39 39 38 37 37 36 36 37 40 42 44 44 42 40 40 41 43 44 44 44 45 46 46 47 47
76 76 77 78 79 80 80 81 81 81 82 82 82 83 84 84 84 83 83 82 81 80 78 77 74 72 69 66 63 60 58 57 55 53 53 52 51 50 48 47 45 45 44 43 42 41 39 37 36 36 36 35 35 34 34 33 34 37 39 41 41 40 39 38 38 40 41 41 41 42 42 42 43 43
74 74 74 75 76 77 77 77 78 78 78 78 78 79 79 79 79 78 77 76 75 74 72 70 67 64 60 58 55 54 53 52 51 50 50 49 48 47 45 44 44 43 42 41 40 39 37 36 35 34 34 33 33 33 33 32 32 34 36 37 37 38 38 36 35 35 36 37 38 38 39 39 40 40
73 72 72 73 73 72 72 73 73 73 73 73 73 73 72 72 71 71 69 68 67 65 64 61 58 55 53 51 50 50 49 48 48 48 47 46 45 44 43 42 42 40 39 38 37 36 35 34 33 32 32 31 31 31 32 31 30 30 31 32 33 35 35 33 32 32 31 32 33 34 35 35 35 36
71 69 69 69 68 68 68 68 67 66 66 66 66 66 65 64 63 62 61 60 59 57 56 54 51 49 48 47 47 47 46 45 45 45 44 43 42 42 41 40 39 38 36 35 34 34 33 32 31 30 29 29 29 30 30 29 28 27 27 28 29 30 30 30 29 29 28 28 29 30 30 31 31 31
64 63 64 63 62 62 62 61 60 60 60 60 59 59 58 57 57 56 55 54 52 51 50 48 47 46 45 44 44 44 43 42 42 43 42 41 40 39 38 38 37 35 34 33 32 31 29 28 28 27 27 27 27 27 27 26 25 24 25 25 26 26 26 26 26 26 26 27 27 27 27 26 27 27
57 57 57 57 57 57 57 56 55 55 55 54 54 54 53 52 51 51 50 49 48 47 46 44 43 43 42 41 41 41 41 40 40 40 39 38 37 36 35 35 34 33 31 30 29 28 27 26 25 25 25 25 25 25 24 23 22 23 23 24 24 24 24 24 24 25 25 25 25 25 24 24 24 25
52 53 53 53 54 54 53 53 52 52 52 51 51 50 49 49 48 47 46 45 44 43 42 41 40 40 39 38 38 38 38 38 37 37 37 36 34 33 32 32 31 30 29 28 27 26 25 24 23 23 22 23 23 23 21 20 20 21 22 22 22 22 22 23 23 24 24 24 24 23 23 23 23 23
50 50 51 52 52 52 51 50 50 49 49 48 48 47 46 45 44 43 42 42 41 40 39 38 38 38 37 36 35 36 36 36 35 34 34 33 32 31 30 28 27 27 27 26 25 24 23 22 22 21 21 20 20 20 19 18 18 18 19 20 20 20 20 21 21 22 22 23 22 22 22 22 22 21
Wind_Direction
260 260 260 259 258 257 257 258 260 261 262 263 265 266 267 266 265 263 263 263 263 263 262 262 263 264 264 264 263 260 255 249 245 242 241 240 239 239 239 240 241 243 244 245 246 246 245 243 241 239 238 237 237 236 237 238 240 241 241 240 239 238 238 239 242 245 249 250 249 248 248 248 249 251
262 262 262 262 261 261 260 259 260 260 261 263 264 265 266 267 266 265 265 265 264 263 262 260 259 260 260 261 261 260 259 255 251 247 245 244 243 241 240 240 240 241 243 244 245 246 246 245 244 242 241 240 239 238 238 238 240 241 242 242 241 241 239 239 241 244 248 251 251 250 250 250 251 252
265 265 264 264 264 264 263 262 261 260 261 262 263 263 264 263 262 262 263 264 264 264 263 261 259 258 258 258 259 259 258 257 255 252 249 247 247 246 244 243 242 242 242 243 245 246 246 247 247 245 244 243 242 241 240 240 241 242 243 243 243 243 242 241 242 243 245 248 250 250 250 251 252 252
265 265 265 265 265 265 266 265 264 263 263 263 262 263 263 262 260 259 260 260 261 261 261 260 259 258 257 256 257 258 258 257 257 256 253 251 249 248 248 247 246 244 243 243 244 245 246 247 247 247 247 246 244 243 242 241 241 242 243 244 244 245 245 244 243 243 243 244 247 249 249 250 251 253
265 265 264 264 264 265 265 266 266 266 265 265 264 263 264 264 262 262 262 262 262 261 260 259 258 257 256 255 256 256 257 257 256 255 255 254 252 251 250 250 249 248 247 246 245 245 246 246 247 248 248 247 247 246 244 243 241 242 242 243 244 245 245 246 245 244 243 243 244 246 248 248 249 251
265 265 265 264 263 263 263 263 264 264 265 264 264 263 263 263 263 262 262 262 262 263 262 261 259 257 256 256 257 258 258 257 256 255 255 254 254 253 252 251 251 250 250 250 249 248 247 246 247 247 248 248 248 247 246 245 243 242 242 243 243 244 245 246 245 244 244 243 243 245 246 247 246 247
267 267 267 266 264 263 262 261 261 262 263 264 264 264 263 262 262 262 261 261 261 261 261 260 258 256 256 256 258 259 259 259 258 257 256 255 254 253 253 253 252 251 251 251 251 251 250 248 248 247 248 248 249 248 247 247 245 244 243 243 244 245 246 246 245 244 243 243 243 244 245 246 246 246
269 270 270 268 266 264 264 263 263 263 263 263 263 262 262 262 262 262 262 261 261 261 260 260 259 259 258 258 259 259 260 260 259 258 258 257 256 254 254 253 253 252 252 252 251 252 251 251 250 249 249 249 249 249 249 248 247 246 245 245 245 245 246 246 245 244 242 242 243 243 244 245 246 246
272 272 271 270 269 267 267 267 266 266 264 263 263 263 263 263 263 262 262 261 261 261 260 260 260 261 261 261 260 260 259 259 259 258 258 258 258 256 255 254 253 253 253 253 252 252 252 252 252 251 251 250 250 250 250 249 248 247 246 245 245 245 246 246 246 245 243 242 242 243 244 244 245 246
274 273 271 270 269 269 269 269 269 268 267 266 266 266 266 265 264 263 262 262 261 261 260 260 260 260 261 261 261 260 259 257 257 257 257 257 258 257 256 255 254 253 253 253 253 253 253 253 253 252 252 251 251 250 250 250 250 249 248 247 246 246 245 246 246 245 244 243 243 243 244 244 245 246
275 274 272 270 269 269 269 269 269 268 268 268 269 269 268 267 266 264 263 262 262 261 261 260 260 260 260 261 261 261 260 259 259 259 258 257 257 257 257 256 255 254 254 253 253 253 253 253 253 253 253 252 252 251 251 251 250 250 249 249 248 247 247 246 246 246 245 245 245 244 244 245 245 246
274 273 272 271 270 269 269 269 269 269 269 270 270 269 268 268 267 265 262 261 261 261 260 259 258 258 258 259 259 259 259 259 259 259 259 258 258 258 258 257 257 256 255 253 253 253 253 253 253 253 253 253 253 252 251 251 251 250 250 249 249 248 248 248 247 247 247 247 246 246 246 246 246 246
273 272 272 271 269 269 269 269 269 270 271 271 270 269 269 267 265 264 263 262 262 262 259 256 255 255 255 255 255 255 256 257 258 258 258 258 259 259 258 258 258 258 257 255 254 253 253 253 253 253 253 253 253 253 252 252 252 251 250 250 249 249 248 248 248 248 249 249 248 248 248 248 248 248
271 271 271 271 271 270 270 269 269 270 269 269 269 270 270 266 264 265 266 265 264 262 257 252 250 252 254 255 256 258 258 259 258 257 257 258 259 260 260 259 258 258 258 257 256 254 253 253 253 253 252 253 253 253 253 252 252 252 251 251 250 250 249 248 248 249 249 249 250 250 250 249 249 249
268 271 274 272 271 270 270 269 268 267 266 266 267 270 270 267 264 265 266 266 265 262 255 249 247 252 259 260 260 260 260 260 259 258 257 258 260 261 262 261 260 259 259 258 258 257 255 254 254 253 252 252 253 253 252 252 252 252 252 252 251 251 250 249 249 249 249 249 249 250 250 250 250 250
269 272 271 269 268 267 267 267 266 264 263 263 264 266 267 266 265 265 265 264 263 260 254 250 251 258 264 264 261 259 259 258 259 259 259 259 259 261 262 262 261 260 259 259 259 258 257 255 254 254 254 253 252 252 252 252 251 251 252 252 252 251 251 250 250 249 249 249 249 249 249 250 250 251
271 265 259 262 267 267 266 265 264 264 262 261 261 263 264 264 264 265 266 265 263 261 258 257 260 265 267 265 261 259 258 258 259 260 260 260 260 261 262 262 261 260 259 259 259 259 258 257 255 255 255 254 253 253 253 252 251 251 251 251 252 251 251 251 251 250 249 249 249 249 249 249 249 250
268 263 262 268 272 273 273 272 270 269 267 265 265 265 265 265 265 267 268 268 267 266 265 265 266 268 268 266 263 262 261 262 262 262 263 263 263 263 263 263 262 261 259 258 258 258 258 258 257 256 256 256 255 254 253 253 252 251 250 250 250 251 251 251 251 251 250 250 249 249 249 249 249 249
267 268 269 271 273 275 277 279 279 280 279 278 277 276 275 275 275 275 275 274 273 272 272 271 271 270 271 270 269 267 267 268 268 268 268 268 267 267 267 266 265 262 260 259 258 258 258 258 257 257 257 257 256 255 254 253 252 252 251 250 250 250 250 250 250 250 250 250 250 249 249 249 249 248
266 268 269 270 270 271 273 275 278 281 283 284 285 285 285 284 284 284 284 283 282 281 280 279 278 277 276 276 275 275 274 274 274 274 274 274 273 273 272 271 269 266 263 261 260 260 259 259 258 257 256 257 257 256 255 254 252 252 251 250 250 250 249 249 249 250 250 250 250 250 250 250 249 249
264 265 267 268 268 269 270 272 274 276 278 281 283 284 285 286 286 287 287 287 287 286 285 284 283 282 281 280 280 279 279 278 278 278 278 278 277 276 275 274 273 271 269 267 266 264 262 261 260 259 257 256 256 256 256 254 253 252 251 250 249 249 249 249 249 249 249 249 250 250 251 251 251 250
263 264 265 266 267 268 269 270 271 272 274 275 277 278 280 282 284 286 287 287 288 288 287 287 286 285 284 283 283 282 281 281 280 279 279 278 278 277 277 276 276 276 275 274 272 271 268 265 263 261 260 258 257 257 256 255 254 253 252 251 250 249 249 249 249 249 249 249 249 250 250 251 251 251
263 264 264 265 265 266 267 267 269 270 271 272 274 275 276 278 279 281 282 283 284 285 285 285 285 284 284 283 282 282 281 281 280 280 280 279 279 279 279 279 279 279 279 278 277 276 274 272 270 267 263 261 260 258 256 255 255 255 254 253 252 251 250 249 249 249 249 249 249 249 250 250 250 251
263 264 265 265 266 266 267 267 268 269 270 271 272 273 274 275 276 277 278 279 280 280 281 281 281 281 281 281 281 281 280 280 281 281 281 281 281 281 282 282 282 282 282 281 280 279 278 277 275 272 268 265 262 260 259 257 256 256 256 256 255 254 253 252 251 250 249 249 250 250 250 250 250 251
264 265 266 267 267 268 268 269 270 271 271 272 272 273 274 275 276 276 277 278 278 279 279 279 280 280 280 280 280 281 281 281 282 282 283 284 285 285 285 286 286 286 286 285 283 282 280 278 276 273 271 268 265 263 261 260 258 257 257 257 257 256 255 254 253 252 251 250 250 250 250 250 250 251
264 265 266 268 268 269 270 270 271 271 272 273 274 275 275 276 277 277 277 278 278 279 279 280 280 280 280 280 281 282 283 283 284 286 287 288 288 289 289 289 289 288 287 286 284 282 280 278 276 274 272 269 267 265 263 261 260 259 258 257 257 257 256 256 255 254 253 252 251 251 251 250 250 251
264 265 267 268 269 269 270 271 271 271 272 273 274 275 276 277 277 278 278 278 279 279 279 280 280 280 281 282 283 284 286 287 288 289 290 290 291 291 291 290 289 288 287 285 283 281 280 278 276 274 271 269 268 266 264 262 260 259 258 258 257 256 256 256 256 256 255 253 252 251 251 251 251 251
265 266 267 268 269 270 271 271 272 273 273 274 275 275 276 277 278 278 279 279 279 279 280 280 280 281 282 284 286 287 288 289 290 291 292 292 292 292 291 291 289 287 285 283 282 281 280 278 276 274 272 270 269 267 265 264 262 260 259 259 258 258 257 256 256 256 256 255 253 252 251 251 251 251
266 267 268 269 270 271 272 272 273 274 274 274 274 275 275 276 277 278 278 279 280 280 281 282 283 284 285 286 287 288 289 290 291 291 292 291 292 291 291 290 288 286 285 284 283 282 280 278 276 275 274 273 271 270 268 267 266 264 262 261 260 259 259 257 256 256 256 256 255 254 253 252 251 251
267 267 268 269 270 271 272 272 273 274 274 274 275 275 276 277 277 278 279 280 281 282 283 284 284 285 286 287 287 288 289 289 290 291 291 291 291 291 289 288 287 286 285 284 283 282 281 279 278 277 276 275 273 271 270 268 267 265 264 262 260 259 259 258 257 257 256 256 256 256 255 254 252 251
266 267 268 269 270 270 271 272 272 273 274 275 275 276 277 278 279 280 281 281 282 283 283 284 285 285 286 286 287 288 289 290 291 291 292 292 291 289 288 288 288 287 285 284 283 283 282 281 280 279 277 276 274 272 270 268 266 265 264 262 261 260 259 259 258 258 257 257 256 256 255 255 254 253
264 266 267 269 270 270 271 271 272 273 274 275 276 277 278 279 280 280 281 282 283 283 284 284 285 285 286 287 288 289 290 291 293 294 293 292 290 289 289 289 287 286 285 284 284 285 284 282 281 279 278 276 275 274 272 270 268 266 265 264 262 261 261 260 260 259 259 258 258 258 257 257 256 255
263 264 266 267 268 269 270 271 272 273 274 275 276 276 277 278 279 279 280 281 282 283 284 284 285 286 287 288 290 291 292 294 295 294 293 291 290 290 289 288 286 286 286 287 287 286 285 283 282 280 278 277 276 275 274 273 271 268 267 265 264 262 261 261 261 261 261 260 260 260 260 259 259 258
263 264 264 265 266 267 268 270 271 272 273 274 275 275 276 277 277 278 279 279 280 281 282 283 285 287 288 290 291 293 294 295 294 293 291 290 290 290 288 287 287 288 288 289 288 286 285 284 283 282 280 278 276 275 274 274 273 271 269 267 265 264 262 262 262 262 262 261 261 261 261 261 260 260
264 265 265 265 265 266 267 269 270 271 272 273 273 274 274 275 275 276 277 278 279 280 282 284 285 287 289 290 292 293 294 293 292 290 289 290 289 288 287 288 289 289 289 289 288 287 286 286 285 283 281 279 278 276 275 274 273 273 271 269 267 266 265 264 263 263 262 262 261 261 262 262 262 261
265 265 266 266 267 267 268 269 270 270 271 271 272 272 273 273 274 275 276 277 279 280 282 284 286 287 289 290 291 292 292 290 288 288 288 288 287 287 287 288 289 290 290 289 289 288 287 286 284 282 280 279 278 276 275 274 273 273 272 270 269 268 268 267 265 264 264 263 263 262 263 263 263 263
264 265 266 267 267 268 268 268 268 268 269 270 270 271 272 272 273 275 276 277 279 280 282 283 285 286 288 289 289 289 288 287 286 287 287 286 286 287 288 289 290 290 290 290 289 288 286 285 283 282 281 279 278 276 275 273 272 271 271 271 270 270 269 267 266 266 266 266 265 265 265 265 265 264
265 265 266 267 267 267 267 267 267 267 268 268 269 270 271 272 273 274 275 277 278 280 281 283 284 285 286 287 287 286 285 284 285 286 285 286 287 288 289 289 290 290 290 289 288 287 287 286 284 283 282 281 280 278 275 272 270 269 270 271 272 272 270 268 267 267 268 268 268 267 267 267 266 266
267 267 267 267 267 267 267 267 268 268 268 268 269 270 270 271 272 274 275 276 278 279 281 282 283 284 285 285 284 284 283 283 284 284 284 286 287 288 289 289 289 289 288 288 288 288 288 287 286 285 284 283 282 279 276 273 270 269 269 271 272 273 272 270 269 268 268 268 269 269 268 267 267 267
268 268 268 268 268 268 268 269 269 269 270 270 270 271 271 272 273 275 276 277 278 279 280 281 282 283 283 282 282 282 282 283 283 284 284 286 287 288 289 289 288 288 287 287 287 288 288 287 287 286 285 283 281 279 277 275 272 270 270 271 271 272 274 274 273 271 269 268 268 268 268 268 269 268
267 267 268 268 268 269 269 270 270 271 271 271 272 272 273 274 275 276 277 277 278 279 279 280 280 281 280 280 280 280 281 282 282 283 285 286 287 287 288 287 287 287 287 287 286 286 286 287 287 286 285 283 280 279 278 277 275 274 272 271 271 272 274 276 275 274 272 270 268 268 268 269 269 269
265 265 266 267 268 268 269 269 270 271 271 272 272 273 274 274 275 276 276 277 277 278 278 278 279 279 278 278 278 279 280 281 282 283 284 285 285 285 285 285 285 286 286 286 285 285 285 286 286 285 284 282 280 279 279 280 279 278 276 274 273 274 275 275 275 274 273 272 271 271 271 270 269 268
263 264 265 266 267 267 268 269 270 271 271 272 272 272 273 274 274 275 275 275 276 276 276 276 276 276 276 276 278 279 279 280 281 282 283 283 283 283 283 283 284 284 284 284 285 286 286 287 286 285 283 282 281 280 281 281 281 280 278 276 276 275 275 275 275 274 274 274 274 274 274 273 271 269
262 263 263 264 265 266 267 268 269 270 270 270 271 272 272 272 273 273 273 274 274 274 274 274 273 273 274 276 277 278 279 280 280 281 281 281 281 281 280 280 281 282 282 284 285 287 288 288 287 285 284 283 283 282 282 282 281 279 277 276 276 276 275 275 275 275 274 274 274 274 273 272 271 270
262 262 262 262 262 264 265 266 267 268 268 269 269 270 270 271 271 271 271 271 271 271 271 271 271 272 274 275 276 277 278 278 278 279 279 278 278 278 277 278 278 279 281 284 286 288 290 290 290 289 288 287 287 287 286 284 282 279 277 276 276 276 275 274 273 273 273 273 272 272 271 270 270 269
Height
10596 10596 10597 10597 10597 10598 10598 10598 10598 10598 10597 10597 10597 10597 10596 10596 10596 10596 10596 10596 10596 10596 10597 10597 10596 10596 10596 10596 10597 10597 10598 10599 10600 10601 10602 10603 10604 10605 10606 10608 10610 10611 10613 10614 10615 10616 10617 10618 10620 10621 10623 10625 10627 10629 10630 10632 10633 10635 10637 10639 10640 10642 10644 10645 10646 10648 10648 10650 10652 10653 10653 10654 10655 10655
10592 10592 10592 10592 10593 10593 10593 10593 10593 10593 10593 10593 10593 10592 10592 10592 10592 10592 10592 10592 10592 10592 10592 10592 10592 10592 10592 10592 10592 10592 10593 10593 10594 10596 10597 10598 10599 10600 10601 10603 10604 10606 10607 10609 10610 10610 10611 10612 10613 10614 10616 10618 10620 10622 10623 10625 10626 10628 10629 10631 10633 10635 10637 10638 10640 10641 10642 10643 10644 10646 10647 10648 10649 10650
10587 10587 10587 10588 10588 10588 10588 10589 10589 10589 10588 10588 10588 10588 10587 10587 10587 10587 10587 10587 10587 10587 10587 10587 10588 10588 10588 10588 10587 10588 10588 10588 10589 10590 10591 10592 10593 10594 10596 10597 10599 10600 10602 10603 10604 10605 10606 10606 10607 10608 10609 10610 10612 10614 10616 10617 10619 10620 10622 10624 10625 10627 10629 10631 10632 10634 10635 10636 10637 10639 10641 10641 10642 10643
10582 10582 10582 10583 10583 10583 10583 10584 10584 10584 10583 10583 10583 10582 10582 10582 10582 10582 10582 10582 10582 10582 10582 10582 10582 10583 10583 10583 10583 10583 10583 10583 10584 10584 10584 10585 10586 10587 10589 10590 10592 10593 10595 10596 10597 10598 10599 10600 10601 10602 10603 10604 10605 10607 10608 10610 10611 10613 10614 10616 10617 10619 10621 10622 10624 10626 10628 10629 10630 10631 10633 10635 10636 10637
10576 10577 10577 10577 10578 10578 10578 10578 10578 10578 10578 10577 10577 10577 10577 10577 10577 10577 10577 10577 10576 10576 10576 10577 10577 10577 10577 10578 10578 10578 10578 10578 10578 10578 10579 10579 10580 10581 10582 10583 10584 10586 10587 10589 10590 10591 10592 10594 10595 10595 10596 10597 10598 10599 10601 10602 10604 10605 10607 10608 10610 10611 10612 10614 10616 10618 10620 10621 10623 10624 10626 10627 10629 10630
10571 10571 10571 10571 10572 10571 10571 10571 10571 10571 10571 10571 10571 10571 10571 10571 10571 10571 10571 10571 10571 10571 10572 10572 10572 10572 10572 10572 10572 10572 10573 10573 10573 10573 10573 10573 10574 10574 10575 10576 10577 10578 10579 10581 10582 10583 10585 10586 10587 10588 10589 10590 10591 10592 10593 10594 10596 10598 10599 10601 10602 10603 10604 10606 10607 10609 10611 10613 10615 10616 10618 10620 10622 10623
10565 10565 10565 10565 10565 10565 10564 10564 10564 10564 10564 10565 10565 10565 10565 10565 10565 10565 10565 10565 10565 10566 10566 10566 10566 10566 10566 10566 10566 10566 10566 10567 10567 10567 10568 10568 10568 10568 10569 10569 10570 10571 10572 10573 10574 10575 10576 10578 10579 10580 10582 10583 10584 10585 10585 10587 10588 10590 10591 10592 10594 10595 10596 10597 10599 10600 10602 10604 10606 10608 10610 10612 10614 10615
10558 10558 10558 10558 10558 10558 10557 10557 10557 10558 10558 10558 10558 10558 10558 10558 10558 10558 10558 10558 10558 10559 10559 10559 10559 10559 10559 10560 10560 10560 10560 10561 10561 10562 10562 10562 10563 10563 10563 10563 10563 10564 10564 10565 10566 10567 10568 10569 10571 10572 10573 10575 10576 10577 10578 10579 10580 10582 10583 10584 10585 10586 10588 10589 10590 10592 10593 10595 10597 10599 10601 10603 10605 10606
10551 10551 10551 10551 10551 10550 10550 10551 10551 10550 10550 10550 10550 10550 10550 10551 10551 10551 10551 10551 10551 10552 10551 10551 10551 10551 10552 10552 10553 10553 10554 10555 10555 10555 10555 10556 10556 10557 10557 10557 10557 10557 10558 10558 10559 10559 10560 10561 10562 10564 10565 10566 10568 10569 10570 10571 10573 10574 10575 10576 10577 10578 10579 10580 10582 10583 10584 10586 10588 10590 10592 10594 10596 10597
10544 10544 10544 10544 10543 10543 10543 10543 10543 10543 10542 10543 10543 10544 10543 10543 10543 10543 10543 10543 10543 10544 10544 10543 10543 10543 10543 10544 10545 10546 10547 10547 10547 10548 10549 10549 10549 10550 10550 10550 10550 10550 10551 10552 10552 10553 10553 10554 10554 10555 10556 10558 10559 10560 10561 10563 10564 10565 10567 10568 10569 10570 10571 10572 10573 10574 10575 10577 10578 10580 10582 10584 10586 10588
10536 10537 10537 10537 10536 10536 10536 10536 10536 10535 10535 10536 10536 10536 10536 10536 10536 10536 10536 10535 10535 10536 10535 10535 10534 10535 10536 10537 10538 10539 10539 10540 10540 10541 10541 10542 10542 10542 10542 10543 10542 10542 10543 10544 10545 10546 10546 10546 10547 10547 10548 10549 10550 10551 10552 10553 10554 10556 10557 10559 10560 10561 10562 10563 10564 10565 10566 10568 10569 10571 10573 10575 10576 10578
10529 10529 10529 10529 10529 10529 10528 10529 10529 10529 10529 10529 10528 10528 10528 10528 10528 10528 10528 10528 10528 10528 10528 10527 10527 10528 10529 10531 10531 10532 10532 10533 10533 10533 10533 10534 10534 10533 10534 10534 10534 10534 10535 10536 10537 10537 10538 10538 10538 10539 10539 10540 10540 10542 10543 10544 10544 10546 10547 10548 10550 10551 10553 10554 10555 10556 10558 10559 10560 10561 10563 10565 10566 10568
10521 10522 10522 10521 10521 10521 10521 10521 10522 10522 10522 10521 10521 10521 10521 10521 10521 10521 10521 10521 10521 10521 10521 10521 10520 10522 10524 10524 10525 10525 10525 10526 10526 10526 10525 10525 10525 10525 10525 10526 10526 10526 10525 10527 10528 10528 10528 10529 10529 10530 10531 10531 10530 10532 10534 10534 10534 10535 10537 10538 10539 10540 10542 10543 10545 10547 10548 10549 10551 10552 10553 10555 10556 10558
10514 10515 10515 10514 10513 10514 10514 10514 10515 10515 10515 10514 10514 10513 10514 10514 10515 10515 10515 10514 10515 10515 10515 10515 10515 10516 10518 10519 10518 10518 10518 10518 10518 10518 10517 10517 10517 10517 10516 10516 10517 10517 10516 10516 10517 10518 10518 10519 10519 10520 10521 10521 10521 10521 10523 10524 10525 10526 10527 10528 10528 10529 10531 10532 10534 10536 10538 10539 10540 10542 10543 10544 10546 10547
10508 10509 10509 10507 10506 10506 10506 10506 10508 10508 10507 10507 10507 10507 10507 10507 10508 10508 10508 10508 10508 10509 10509 10509 10509 10510 10511 10512 10512 10511 10511 10510 10510 10509 10509 10509 10508 10508 10508 10507 10507 10508 10507 10507 10507 10507 10508 10509 10510 10509 10510 10511 10510 10510 10511 10513 10514 10515 10516 10517 10518 10518 10519 10521 10523 10524 10526 10527 10529 10531 10532 10534 10535 10536
10503 10505 10503 10500 10499 10499 10498 10499 10500 10501 10501 10501 10501 10501 10501 10501 10501 10501 10501 10502 10502 10502 10503 10503 10503 10502 10503 10504 10504 10502 10502 10502 10501 10500 10500 10500 10500 10499 10499 10498 10498 10498 10498 10498 10497 10496 10496 10499 10500 10498 10498 10499 10500 10499 10500 10501 10503 10504 10505 10505 10505 10507 10508 10509 10510 10512 10513 10515 10517 10519 10520 10522 10524 10525
10495 10497 10494 10491 10491 10492 10492 10492 10492 10493 10494 10494 10494 10495 10494 10494 10494 10494 10494 10495 10495 10495 10495 10496 10496 10495 10494 10495 10495 10493 10492 10492 10492 10491 10490 10490 10490 10490 10489 10489 10488 10487 10488 10488 10487 10486 10484 10486 10489 10488 10486 10487 10488 10488 10488 10489 10490 10492 10494 10493 10493 10494 10495 10496 10497 10499 10500 10502 10504 10506 10508 10510 10511 10513
10484 10485 10483 10482 10482 10482 10482 10482 10483 10484 10485 10485 10486 10486 10486 10487 10487 10487 10487 10487 10487 10487 10487 10487 10487 10486 10484 10484 10484 10483 10481 10481 10481 10481 10480 10480 10480 10480 10479 10478 10477 10477 10477 10477 10476 10476 10473 10473 10476 10477 10475 10475 10476 10476 10476 10477 10477 10479 10480 10481 10481 10481 10482 10483 10484 10486 10487 10489 10491 10493 10495 10496 10498 10500
10472 10473 10473 10472 10472 10471 10471 10470 10470 10471 10473 10473 10474 10475 10476 10476 10477 10477 10477 10477 10477 10477 10477 10477 10477 10476 10475 10473 10473 10473 10471 10471 10471 10470 10470 10469 10469 10470 10468 10467 10466 10465 10466 10466 10465 10465 10464 10462 10464 10466 10464 10462 10463 10462 10462 10463 10464 10465 10466 10467 10468 10468 10469 10470 10471 10472 10474 10476 10478 10480 10481 10483 10485 10487
10463 10463 10463 10464 10464 10464 10463 10462 10462 10461 10461 10461 10462 10463 10464 10464 10465 10465 10465 10465 10466 10466 10466 10465 10465 10465 10464 10463 10463 10462 10461 10461 10460 10460 10459 10458 10458 10459 10457 10456 10455 10454 10454 10455 10455 10455 10454 10451 10451 10453 10452 10450 10448 10447 10446 10447 10449 10450 10451 10452 10454 10454 10455 10456 10457 10458 10460 10462 10464 10466 10468 10470 10472 10474
10454 10455 10455 10455 10455 10455 10455 10456 10455 10455 10454 10454 10453 10453 10453 10453 10454 10454 10454 10455 10455 10455 10455 10455 10454 10454 10454 10453 10453 10452 10451 10450 10450 10449 10449 10448 10447 10448 10447 10445 10444 10443 10443 10443 10443 10443 10442 10440 10438 10438 10438 10436 10434 10431 10430 10431 10433 10434 10435 10437 10439 10439 10440 10441 10442 10444 10446 10449 10451 10453 10456 10458 10459 10461
10446 10447 10447 10446 10446 10447 10447 10447 10447 10447 10447 10447 10446 10446 10445 10445 10445 10445 10445 10445 10445 10445 10445 10445 10444 10444 10444 10443 10443 10442 10440 10439 10439 10439 10438 10437 10437 10437 10437 10436 10435 10433 10431 10430 10430 10429 10427 10426 10424 10423 10422 10421 10419 10417 10415 10414 10416 10418 10420 10421 10423 10424 10426 10427 10428 10430 10433 10436 10439 10441 10443 10445 10447 10449
10437 10438 10438 10438 10438 10438 10439 10439 10439 10439 10439 10438 10438 10438 10437 10438 10438 10437 10437 10437 10437 10436 10436 10436 10435 10435 10434 10433 10432 10432 10431 10429 10428 10428 10428 10427 10427 10427 10426 10425 10424 10422 10418 10416 10416 10415 10413 10411 10409 10407 10406 10407 10405 10402 10401 10400 10400 10402 10404 10406 10409 10410 10412 10413 10414 10417 10420 10423 10425 10428 10430 10432 10434 10436
10428 10428 10429 10429 10429 10429 10430 10430 10430 10430 10430 10429 10429 10428 10428 10429 10430 10429 10429 10428 10428 10429 10428 10427 10426 10425 10424 10423 10422 10421 10421 10420 10418 10418 10418 10417 10417 10416 10415 10413 10412 10410 10406 10402 10401 10401 10399 10397 10394 10391 10389 10391 10391 10388 10386 10386 10386 10386 10388 10391 10394 10396 10397 10398 10400 10403 10407 10410 10412 10414 10416 10419 10421 10424
10418 10418 10419 10419 10419 10420 10420 10420 10420 10420 10420 10419 10419 10419 10419 10419 10419 10419 10419 10419 10418 10418 10418 10417 10416 10414 10413 10412 10411 10410 10410 10410 10409 10408 10407 10406 10405 10404 10403 10400 10398 10396 10392 10387 10386 10387 10385 10383 10380 10377 10374 10374 10375 10375 10373 10371 10371 10372 10373 10375 10378 10381 10382 10383 10384 10388 10393 10397 10398 10399 10402 10406 10408 10410
10408 10409 10409 10409 10409 10410 10410 10410 10410 10410 10409 10409 10409 10409 10409 10409 10409 10409 10409 10408 10408 10407 10407 10406 10404 10403 10402 10401 10401 10400 10399 10399 10398 10397 10396 10395 10393 10391 10390 10387 10385 10382 10378 10374 10372 10372 10372 10370 10366 10363 10360 10359 10359 10359 10358 10357 10356 10356 10358 10360 10362 10364 10366 10367 10368 10372 10377 10381 10383 10385 10388 10392 10393 10395
10399 10399 10399 10399 10399 10399 10400 10399 10399 10399 10400 10400 10400 10399 10399 10399 10399 10399 10399 10398 10398 10397 10396 10395 10393 10392 10391 10391 10390 10389 10388 10387 10386 10386 10384 10383 10381 10379 10377 10374 10371 10368 10365 10362 10360 10359 10359 10357 10352 10347 10345 10344 10344 10343 10343 10343 10342 10341 10342 10343 10345 10348 10350 10352 10353 10356 10360 10364 10367 10370 10373 10376 10378 10380
10390 10390 10389 10389 10389 10389 10390 10389 10389 10390 10390 10390 10390 10389 10389 10389 10389 10389 10388 10388 10387 10387 10386 10385 10383 10382 10381 10380 10379 10378 10377 10375 10375 10374 10373 10371 10369 10366 10364 10361 10357 10354 10352 10351 10349 10347 10345 10342 10338 10334 10332 10331 10331 10331 10330 10330 10329 10329 10329 10331 10333 10335 10336 10338 10339 10342 10344 10348 10351 10354 10358 10361 10364 10366
10380 10380 10380 10380 10380 10380 10380 10380 10380 10380 10380 10380 10380 10380 10379 10379 10379 10379 10378 10377 10376 10376 10375 10374 10373 10372 10371 10370 10369 10368 10366 10365 10364 10364 10362 10360 10357 10354 10351 10347 10344 10341 10340 10339 10337 10335 10332 10329 10326 10323 10321 10320 10320 10320 10320 10320 10319 10318 10319 10322 10323 10322 10322 10324 10326 10329 10331 10334 10337 10340 10343 10347 10350 10352
10370 10370 10371 10371 10371 10371 10371 10371 10371 10370 10370 10370 10370 10370 10370 10370 10369 10368 10368 10367 10366 10365 10364 10363 10363 10361 10360 10360 10359 10358 10357 10355 10354 10354 10352 10350 10346 10342 10338 10335 10332 10330 10329 10327 10326 10324 10321 10318 10316 10314 10312 10310 10310 10310 10310 10310 10309 10307 10308 10310 10311 10309 10308 10310 10313 10316 10318 10321 10324 10326 10329 10331 10334 10338
10362 10361 10361 10361 10361 10362 10362 10361 10361 10361 10361 10361 10361 10360 10360 10359 10359 10358 10357 10356 10355 10354 10353 10353 10353 10351 10350 10349 10349 10348 10347 10345 10344 10343 10341 10338 10334 10330 10327 10325 10322 10320 10317 10316 10315 10314 10311 10308 10306 10304 10302 10300 10299 10299 10300 10299 10299 10298 10297 10298 10299 10298 10296 10298 10301 10304 10306 10309 10310 10312 10314 10316 10319 10323
10354 10353 10353 10352 10352 10352 10351 10351 10351 10351 10351 10351 10351 10351 10350 10349 10348 10347 10346 10345 10344 10343 10343 10342 10342 10341 10340 10339 10338 10338 10337 10335 10333 10331 10328 10325 10321 10319 10317 10315 10312 10309 10307 10306 10306 10304 10302 10299 10297 10295 10293 10292 10290 10290 10290 10290 10290 10289 10288 10287 10288 10289 10288 10289 10291 10293 10295 10297 10298 10299 10301 10303 10306 10309
10346 10346 10345 10344 10343 10342 10341 10340 10340 10341 10341 10342 10342 10342 10341 10339 10338 10337 10336 10335 10333 10333 10332 10332 10331 10330 10329 10328 10328 10327 10326 10324 10322 10319 10315 10312 10310 10309 10308 10305 10302 10300 10298 10298 10297 10295 10292 10290 10289 10287 10286 10285 10283 10282 10282 10281 10280 10281 10280 10279 10278 10279 10280 10281 10282 10283 10285 10287 10288 10289 10290 10292 10295 10297
10336 10337 10336 10335 10334 10332 10331 10331 10331 10332 10333 10333 10333 10332 10330 10329 10328 10327 10326 10324 10324 10323 10322 10321 10320 10320 10319 10318 10317 10317 10316 10314 10311 10307 10304 10302 10302 10300 10297 10295 10293 10292 10291 10290 10289 10286 10284 10282 10281 10279 10278 10277 10276 10276 10276 10274 10272 10272 10272 10271 10269 10269 10272 10274 10275 10274 10276 10277 10278 10279 10280 10281 10283 10286
10326 10326 10325 10324 10323 10323 10323 10323 10324 10324 10324 10323 10323 10322 10321 10319 10318 10317 10315 10315 10314 10313 10312 10311 10311 10310 10310 10309 10308 10307 10307 10304 10300 10296 10295 10295 10293 10290 10288 10287 10285 10284 10283 10282 10280 10278 10277 10275 10274 10272 10271 10270 10269 10269 10269 10268 10265 10264 10264 10262 10261 10262 10265 10267 10268 10267 10267 10268 10269 10270 10270 10271 10273 10276
10316 10314 10314 10314 10314 10315 10316 10315 10315 10315 10314 10313 10312 10311 10310 10309 10307 10306 10305 10305 10305 10304 10303 10302 10302 10301 10301 10300 10300 10299 10297 10294 10290 10288 10287 10286 10284 10282 10281 10280 10278 10277 10276 10274 10272 10271 10270 10269 10267 10266 10264 10264 10263 10262 10263 10262 10260 10257 10255 10254 10254 10256 10259 10260 10260 10259 10259 10260 10261 10262 10262 10263 10265 10267
10304 10304 10304 10305 10305 10305 10305 10304 10304 10304 10303 10302 10302 10301 10300 10298 10297 10296 10296 10296 10295 10295 10294 10294 10293 10293 10293 10292 10292 10291 10288 10284 10282 10281 10280 10278 10276 10275 10274 10273 10272 10270 10269 10267 10265 10264 10264 10263 10261 10260 10258 10257 10257 10256 10256 10256 10254 10251 10248 10247 10247 10250 10252 10253 10252 10251 10252 10253 10254 10255 10255 10256 10257 10258
10293 10294 10294 10294 10294 10293 10293 10293 10293 10293 10293 10292 10292 10291 10290 10289 10289 10288 10287 10287 10287 10287 10286 10286 10285 10285 10285 10284 10283 10281 10279 10276 10275 10274 10272 10270 10269 10269 10267 10266 10265 10264 10262 10260 10259 10258 10257 10256 10255 10253 10252 10251 10250 10250 10249 10249 10248 10245 10243 10241 10242 10243 10244 10246 10246 10246 10246 10246 10247 10248 10249 10249 10250 10250
10281 10282 10282 10282 10281 10281 10282 10282 10282 10282 10282 10282 10282 10281 10280 10280 10280 10279 10279 10279 10279 10278 10278 10278 10278 10278 10277 10276 10275 10273 10271 10269 10268 10267 10265 10264 10263 10262 10261 10260 10259 10258 10256 10255 10253 10252 10251 10250 10249 10248 10246 10245 10244 10243 10242 10242 10241 10240 10238 10237 10237 10236 10237 10239 10240 10240 10240 10240 10241 10241 10242 10242 10243 10243
10267 10269 10269 10269 10270 10271 10272 10272 10271 10272 10272 10272 10271 10271 10271 10271 10271 10271 10271 10271 10270 10270 10270 10270 10270 10270 10269 10268 10267 10265 10264 10263 10262 10260 10259 10258 10257 10256 10255 10254 10253 10252 10251 10249 10248 10246 10245 10244 10243 10242 10241 10240 10239 10237 10236 10236 10236 10235 10234 10233 10232 10231 10231 10233 10234 10234 10235 10235 10235 10235 10235 10236 10237 10237
10256 10258 10259 10259 10261 10261 10262 10261 10262 10262 10262 10262 10262 10262 10262 10262 10262 10263 10263 10263 10262 10263 10262 10262 10263 10263 10262 10261 10260 10259 10258 10257 10255 10254 10253 10253 10251 10250 10249 10248 10247 10246 10245 10244 10243 10242 10241 10240 10238 10237 10236 10235 10233 10232 10231 10231 10231 10230 10230 10229 10228 10227 10227 10228 10228 10229 10229 10230 10230 10230 10230 10231 10231 10231
10248 10249 10250 10251 10252 10252 10252 10253 10253 10254 10254 10254 10254 10254 10254 10255 10255 10255 10255 10255 10255 10255 10255 10256 10256 10256 10255 10254 10254 10252 10252 10251 10249 10248 10248 10247 10246 10245 10244 10242 10241 10241 10240 10239 10238 10237 10237 10236 10234 10233 10232 10230 10229 10228 10228 10227 10227 10226 10225 10224 10224 10224 10224 10223 10224 10224 10224 10224 10225 10225 10226 10226 10226 10226
10241 10242 10243 10244 10244 10243 10244 10245 10246 10246 10246 10246 10246 10246 10247 10248 10248 10248 10249 10249 10249 10249 10249 10249 10249 10249 10248 10248 10248 10246 10245 10245 10244 10243 10242 10241 10241 10240 10239 10237 10237 10236 10235 10234 10234 10233 10233 10232 10230 10229 10228 10226 10225 10224 10224 10224 10223 10222 10221 10220 10220 10220 10220 10220 10220 10220 10220 10220 10220 10221 10221 10221 10221 10221
10233 10235 10235 10236 10235 10235 10237 10238 10238 10238 10239 10239 10240 10240 10241 10241 10242 10242 10242 10242 10242 10242 10243 10243 10243 10242 10242 10243 10242 10240 10240 10240 10239 10238 10237 10236 10236 10235 10234 10233 10232 10232 10231 10230 10230 10229 10228 10227 10226 10225 10224 10222 10221 10221 10221 10220 10220 10219 10218 10217 10217 10217 10216 10216 10216 10216 10216 10216 10216 10217 10217 10217 10217 10217
10225 10227 10227 10227 10227 10229 10231 10231 10231 10232 10232 10233 10233 10234 10234 10235 10235 10236 10236 10236 10236 10236 10237 10237 10237 10237 10237 10237 10236 10235 10235 10234 10234 10233 10232 10231 10231 10230 10230 10229 10229 10228 10227 10226 10226 10225 10224 10223 10222 10221 10220 10219 10218 10217 10217 10217 10216 10215 10214 10214 10214 10214 10213 10213 10213 10213 10212 10213 10213 10213 10213 10213 10213 10214